CW7804 Weather Reports


Display with metric or nautical units.
time (UTC)temp
F
wind
direction
speed
MPH
gust
MPH
rain 1hr
in
rain 24hr
in
rain mn
in
humidity
%
barometer
mb
20201125143049 47 38 0.0 2.0 0.00 0.00 0.00 74 1027.6
20201125141535 46 111 0.0 2.0 0.00 0.00 0.00 75 1027.7
20201125134602 46 195 0.0 0.0 0.00 0.00 0.00 76 1027.6
20201125133021 45 195 0.0 0.0 0.00 0.00 0.00 79 1027.6
20201125131537 45 195 0.0 0.0 0.00 0.00 0.00 78 1027.8
20201125130047 44 195 0.0 0.0 0.00 0.00 0.00 78 1027.6
20201125124516 44 195 0.0 0.0 0.00 0.00 0.00 80 1027.8
20201125123100 44 195 0.0 0.0 0.00 0.00 0.00 78 1027.8
20201125121524 44 195 0.0 0.0 0.00 0.00 0.00 78 1027.7
20201125120036 44 195 0.0 0.0 0.00 0.00 0.00 81 1027.6
20201125114517 44 195 0.0 0.0 0.00 0.00 0.00 81 1027.5
20201125113020 43 195 0.0 0.0 0.00 0.00 0.00 82 1027.6
20201125111508 43 195 0.0 0.0 0.00 0.00 0.00 81 1027.7
20201125110010 43 195 0.0 0.0 0.00 0.00 0.00 81 1027.4
20201125104737 43 195 0.0 0.0 0.00 0.00 0.00 82 1027.5
20201125103224 42 195 0.0 0.0 0.00 0.00 0.00 81 1027.4
20201125101645 42 195 0.0 0.0 0.00 0.00 0.00 79 1027.4
20201125100132 42 195 0.0 0.0 0.00 0.00 0.00 81 1027.1
20201125094625 41 195 0.0 0.0 0.00 0.00 0.00 82 1027.2
20201125093140 41 195 0.0 0.0 0.00 0.00 0.00 84 1027.3
20201125091646 40 195 0.0 0.0 0.00 0.00 0.00 84 1027.4
20201125090224 39 195 0.0 0.0 0.00 0.00 0.00 82 1027.3
20201125084558 38 195 0.0 0.0 0.00 0.00 0.00 82 1027.5
20201125083159 38 195 0.0 0.0 0.00 0.00 0.00 82 1027.5
20201125081722 38 195 0.0 0.0 0.00 0.00 0.00 84 1027.6
20201125080137 37 195 0.0 0.0 0.00 0.00 0.00 84 1027.6
20201125074604 37 195 0.0 0.0 0.00 0.00 0.00 85 1027.7
20201125073137 38 195 0.0 0.0 0.00 0.00 0.00 84 1027.8
20201125071657 38 195 0.0 0.0 0.00 0.00 0.00 85 1027.7
20201125070242 38 195 0.0 0.0 0.00 0.00 0.00 85 1027.5
20201125064602 37 195 0.0 0.0 0.00 0.00 0.00 84 1027.8
20201125063241 38 196 0.0 0.0 0.00 0.00 0.00 84 1028.3
20201125061541 38 196 0.0 0.0 0.00 0.00 0.00 84 1028.4
20201125060137 38 196 0.0 0.0 0.00 0.00 0.00 85 1028.4
20201125054611 38 196 0.0 0.0 0.00 0.00 0.00 84 1028.6
20201125053049 38 196 0.0 0.0 0.00 0.00 0.00 84 1028.7
20201125051539 38 196 0.0 0.0 0.00 0.00 0.00 84 1028.9
20201125050043 38 196 0.0 0.0 0.00 0.00 0.00 81 1028.9
20201125044526 38 196 0.0 0.0 0.00 0.00 0.00 82 1029.0
20201125043032 38 196 0.0 0.0 0.00 0.00 0.00 83 1029.0
20201125041531 38 196 0.0 0.0 0.00 0.00 0.00 83 1028.6
20201125040045 38 196 0.0 0.0 0.00 0.00 0.00 83 1028.4
20201125034547 38 196 0.0 0.0 0.00 0.00 0.00 83 1028.6
20201125033020 39 196 0.0 0.0 0.00 0.00 0.00 82 1028.5
20201125031523 39 196 0.0 0.0 0.00 0.00 0.00 81 1028.5
20201125030112 39 195 0.0 0.0 0.00 0.00 0.00 81 1028.5
20201125024535 39 196 0.0 0.0 0.00 0.00 0.00 79 1028.6
20201125023042 39 196 0.0 0.0 0.00 0.00 0.00 79 1028.6
20201125021539 40 196 0.0 0.0 0.00 0.00 0.00 79 1028.6
20201125020027 40 196 0.0 0.0 0.00 0.00 0.00 78 1028.9
20201125014519 40 196 0.0 0.0 0.00 0.00 0.00 78 1028.8
20201125013028 41 195 0.0 0.0 0.00 0.00 0.00 78 1028.9
20201125011526 41 195 0.0 0.0 0.00 0.00 0.00 76 1028.9
20201125010028 41 195 0.0 0.0 0.00 0.00 0.00 76 1028.9
20201125004523 42 195 0.0 0.0 0.00 0.00 0.00 73 1028.8
20201125003048 42 195 0.0 0.0 0.00 0.00 0.00 71 1028.8
20201125001528 43 195 0.0 0.0 0.00 0.00 0.00 73 1028.9
20201125000045 43 195 0.0 0.0 0.00 0.00 0.00 73 1028.9
20201124234517 44 195 0.0 0.0 0.00 0.01 0.00 71 1028.6
20201124233017 44 195 0.0 0.0 0.00 0.01 0.00 68 1028.6
20201124231523 45 195 0.0 0.0 0.00 0.01 0.00 62 1028.5
20201124230040 46 195 0.0 0.0 0.00 0.01 0.00 61 1028.5
20201124223020 49 195 0.0 0.0 0.00 0.01 0.00 56 1028.4
20201124221541 50 195 0.0 0.0 0.00 0.01 0.00 53 1028.4
20201124220032 51 195 0.0 0.0 0.00 0.01 0.00 50 1028.0
20201124214525 52 196 0.0 0.0 0.00 0.01 0.00 51 1027.8
20201124213022 52 195 0.0 0.0 0.00 0.01 0.00 50 1028.1
20201124211514 52 195 0.0 0.0 0.00 0.01 0.00 46 1028.0
20201124210023 53 195 0.0 3.0 0.00 0.01 0.00 48 1027.9
20201124204507 53 189 0.0 0.0 0.00 0.01 0.00 46 1027.9
20201124203025 54 189 0.0 0.0 0.00 0.01 0.00 45 1027.8
20201124201518 53 189 0.0 0.0 0.00 0.01 0.00 45 1027.8
20201124200015 54 132 1.0 3.0 0.00 0.01 0.00 42 1027.9
20201124194739 54 173 0.0 3.0 0.00 0.01 0.00 46 1028.0
20201124193230 53 139 0.0 3.0 0.00 0.01 0.00 43 1028.1
20201124191804 53 158 1.0 4.0 0.00 0.01 0.00 43 1028.1